Temp
13 13 13 13 12 14 15 15 15 15 14 14 14 14 14 14 14 15 15 15 15 15 14 14 14 14 14 14 14 14 13 12 12 12 10 11 11 11 11 11 11 11 11
13 12 11 11 10 12 13 15 15 15 15 15 15 15 15 15 15 15 14 14 14 14 14 14 14 14 14 14 14 14 12 12 12 12 11 8 9 10 10 10 11 11 10
13 12 11 11 11 11 12 14 15 15 15 15 15 14 14 14 14 14 14 14 14 14 14 14 14 14 14 14 14 14 13 12 12 12 12 8 9 9 9 10 10 10 10
14 13 13 12 11 12 13 15 15 15 15 15 15 15 14 13 14 14 14 14 14 14 14 14 14 14 14 14 14 14 14 13 12 11 12 12 11 8 7 9 9 10 9
14 14 13 12 11 12 13 13 12 14 15 15 15 15 15 15 14 14 14 14 13 13 13 14 14 14 14 14 14 14 13 13 13 12 10 11 10 10 8 6 7 9 9
14 14 14 14 13 13 12 12 13 12 13 14 14 14 14 14 13 14 14 13 13 13 13 13 13 13 13 13 13 13 13 13 13 13 12 12 11 9 8 5 5 7 7
12 14 14 13 13 13 12 12 12 13 14 13 14 14 14 13 14 14 14 13 13 13 13 13 13 13 13 13 13 13 13 13 13 13 12 12 12 12 11 9 5 5 6
12 12 12 13 13 14 14 13 12 13 12 14 13 13 13 13 13 13 13 13 13 13 13 13 13 13 13 13 13 12 13 13 12 12 12 12 11 11 11 10 7 3 4
12 12 11 12 13 12 13 13 13 13 13 14 14 13 13 13 13 12 13 13 13 14 13 13 12 12 12 12 12 11 11 11 11 11 11 10 10 10 10 10 10 9 3
11 11 11 12 12 12 12 13 13 13 13 13 13 13 13 12 12 12 12 12 12 13 13 13 12 12 11 11 11 11 10 10 10 9 9 9 9 9 9 8 8 8 7
10 10 9 11 12 13 13 12 12 13 13 13 13 13 12 12 12 11 11 11 11 12 12 12 11 11 11 10 10 10 9 9 9 8 8 7 6 6 6 6 6 6 6
9 8 9 10 11 12 12 13 13 12 12 12 12 12 12 12 11 10 10 10 10 10 10 11 11 10 10 9 9 9 8 8 7 6 6 5 4 3 3 4 4 4 4
8 8 8 9 10 11 11 12 12 12 12 12 12 11 11 11 11 11 10 9 9 10 9 8 9 9 9 8 7 7 7 6 5 5 4 3 2 2 3 3 3 3 2
8 8 8 8 10 11 11 11 12 12 12 11 11 10 10 11 11 11 10 9 8 8 8 7 7 7 7 7 7 6 6 5 4 3 3 3 -0 1 3 2 2 2 1
9 8 7 7 9 10 11 12 11 10 10 10 11 11 11 10 10 10 9 9 8 7 6 6 5 4 5 6 6 6 5 4 3 3 2 -1 -1 1 1 2 2 1 0
7 7 8 8 8 9 10 10 11 11 10 10 9 10 10 10 10 10 9 9 8 6 6 5 5 4 4 4 6 5 4 3 2 2 -0 -1 -2 -0 1 1 1 1 -0
6 6 7 7 7 7 9 10 10 10 10 10 10 9 9 9 9 9 8 8 7 6 5 5 4 3 3 4 4 5 3 2 2 -0 -1 -2 -0 -0 -0 -0 -0 -0 -1
4 5 6 6 6 6 7 8 10 10 9 8 8 8 8 8 8 7 7 7 6 5 4 4 3 3 3 3 2 3 2 2 0 -1 -1 -1 -0 1 0 0 -0 -1 -1
4 4 4 4 5 5 6 6 6 7 8 8 8 8 7 6 5 6 6 5 5 4 3 3 2 2 2 2 1 1 2 0 -1 -1 -2 -1 0 0 0 -0 -1 -1 -1
1 2 2 2 3 4 4 5 5 5 5 8 9 8 7 6 5 5 5 4 3 2 2 1 1 2 2 1 0 2 -0 -2 -2 -2 -1 -0 0 -0 -1 -1 -1 -2 -2
-1 -0 -0 1 1 2 3 4 4 4 6 6 7 7 7 6 5 4 3 3 2 1 0 0 0 1 1 0 -0 0 -1 -2 -2 -1 -1 -0 -0 -1 -1 -1 -2 -2 -2
-2 -2 -1 -1 -0 0 1 2 3 4 5 5 5 5 6 5 3 3 2 1 0 -1 -1 -1 -1 -1 -0 -0 -0 -1 -1 -1 1 -0 -0 -1 -1 -1 -2 -2 -2 -2 -3
-3 -2 -2 -1 -1 -0 0 1 1 2 3 4 4 3 4 4 3 2 1 -0 -1 -1 -2 -2 -2 -2 -1 -1 -0 -2 -2 -1 0 0 -1 -1 -2 -2 -3 -3 -3 -4 -4
-4 -3 -4 -3 -3 -3 -2 -1 0 1 2 3 3 2 2 2 1 0 -0 -1 -1 -1 -2 -2 -2 -2 -2 -1 -1 -1 -1 -2 -1 -2 -2 -3 -3 -3 -3 -4 -4 -4 -5
-4 -4 -4 -4 -4 -3 -2 -2 -2 -1 2 2 1 1 1 1 -0 -0 -1 -1 -1 -1 -2 -2 -3 -3 -3 -2 -2 -2 -2 -2 -2 -3 -3 -3 -4 -4 -4 -5 -5 -5 -6
-5 -5 -5 -5 -5 -4 -4 -3 -3 -2 1 2 1 0 0 0 -1 -2 -2 -2 -2 -2 -2 -3 -3 -3 -3 -2 -2 -3 -3 -3 -3 -3 -4 -4 -4 -4 -5 -5 -6 -6 -7
Height
766 763 771 776 783 777 780 786 790 795 798 801 804 806 809 813 816 819 822 824 826 827 829 832 834 837 838 841 845 849 852 856 859 862 867 868 870 871 872 872 873 875 876
767 764 770 774 783 784 783 787 789 791 795 798 801 804 807 811 814 817 819 821 823 825 827 828 831 834 837 840 842 844 848 851 854 858 863 868 870 869 868 871 872 872 874
763 761 758 776 781 785 785 787 789 790 793 797 800 803 806 809 812 813 816 818 820 822 824 826 828 830 832 834 837 840 842 845 850 853 855 864 863 864 866 866 868 870 871
762 761 763 767 780 784 784 783 785 787 791 795 797 798 799 802 804 808 812 814 816 818 820 822 824 826 829 831 833 836 838 841 844 849 850 850 852 859 867 865 865 868 870
762 762 768 775 779 782 779 779 780 784 789 793 793 795 796 799 802 806 810 812 813 815 818 820 822 823 825 827 830 832 835 838 839 842 846 849 849 849 855 862 861 864 867
762 764 770 775 778 776 779 780 779 781 786 790 792 793 794 796 800 802 804 807 810 812 814 816 818 820 822 825 827 830 832 833 836 839 841 842 847 847 848 855 858 859 862
766 768 771 772 773 773 776 776 776 777 779 786 789 791 792 794 797 800 801 802 805 806 807 810 813 815 817 820 823 825 827 829 831 833 836 838 840 843 844 846 854 856 860
774 772 770 771 770 769 771 771 772 771 779 778 783 786 788 790 792 796 797 798 799 802 805 806 809 811 814 817 819 820 823 825 827 829 832 835 837 841 843 844 847 856 857
774 771 772 771 771 771 771 769 767 769 773 775 776 780 781 784 786 788 791 794 795 796 801 803 807 810 811 814 816 817 819 822 824 826 829 831 835 837 841 844 845 845 855
775 773 773 769 770 770 768 768 772 771 771 773 775 774 775 777 779 783 784 786 790 792 792 795 801 803 809 812 813 815 817 819 820 824 827 832 832 835 839 843 846 846 849
774 772 768 768 767 765 766 766 766 769 769 770 769 770 770 773 775 777 778 778 782 785 786 791 795 796 801 806 809 814 816 819 818 821 825 831 835 834 837 844 845 848 848
773 771 766 765 766 765 764 764 765 767 767 767 766 766 766 766 770 770 769 771 773 775 780 784 788 792 795 800 804 808 813 818 818 820 824 826 832 835 840 844 844 848 847
773 769 766 766 765 764 764 764 765 764 765 764 763 762 762 761 761 761 764 766 768 769 770 777 782 786 791 796 802 805 810 816 819 824 824 825 829 838 841 843 841 843 846
782 778 773 770 769 767 767 765 763 760 761 760 759 757 757 757 757 758 758 758 760 763 764 768 772 777 784 789 795 802 807 812 817 821 825 825 834 839 838 843 841 843 844
790 787 785 781 776 772 768 764 763 764 764 760 755 753 751 752 751 753 753 753 752 755 760 766 768 769 771 777 787 799 805 809 811 813 818 824 830 837 836 839 835 839 843
798 793 788 783 778 776 774 770 766 763 760 758 755 752 749 747 747 747 749 749 751 753 756 757 763 766 768 775 773 781 793 801 808 811 818 823 828 830 832 835 836 839 840
804 798 793 788 782 776 771 767 763 759 756 753 750 749 746 744 745 745 747 746 748 750 749 751 758 762 765 771 772 778 786 794 803 809 813 815 821 827 828 832 833 835 840
807 801 795 788 782 777 771 766 760 757 754 751 748 746 745 743 741 742 745 744 744 743 744 747 751 757 760 765 769 774 783 789 798 806 812 812 816 821 824 829 831 833 836
812 806 800 794 785 777 770 764 758 754 750 745 743 742 742 741 741 739 737 739 739 740 741 744 746 750 756 761 766 772 778 788 796 801 807 810 813 819 820 822 828 832 834
813 803 794 789 782 776 770 763 757 752 747 741 738 737 736 736 736 736 735 734 736 737 736 738 741 747 754 759 764 768 776 786 794 800 805 808 810 813 817 819 825 829 832
807 802 796 788 779 771 766 758 752 746 740 736 732 731 729 727 729 729 728 729 730 733 734 737 740 745 749 756 761 766 775 784 789 794 798 804 808 811 813 818 822 826 829
798 797 789 780 775 771 765 754 747 741 736 730 726 722 721 720 722 722 723 725 728 730 734 735 739 743 747 753 760 767 773 779 784 788 795 801 803 808 812 817 821 824 822
807 798 786 775 769 765 761 750 743 739 731 725 718 714 713 714 715 715 717 721 723 726 730 732 734 739 743 752 759 766 772 778 782 787 792 798 802 807 811 814 817 818 820
806 798 789 779 766 759 753 746 737 732 725 717 709 706 706 708 710 709 712 714 718 721 725 728 732 735 742 748 756 764 771 776 781 787 792 796 800 805 809 811 814 816 816
806 798 789 779 768 758 746 738 729 723 715 708 703 699 698 702 703 703 704 707 710 713 717 722 724 730 737 745 753 760 766 771 777 783 789 794 798 802 805 808 811 812 814
806 797 789 778 766 755 744 733 724 716 708 701 696 694 691 693 697 700 702 705 707 711 715 719 722 729 736 744 754 762 768 772 777 782 786 791 795 799 802 805 807 810 812
Wind_Speed
6 16 15 21 19 27 35 37 34 31 29 26 26 24 25 24 23 22 21 22 22 22 22 22 23 24 25 26 25 25 25 23 22 21 14 11 11 12 12 11 11 11 9
8 15 18 10 7 7 23 34 34 31 29 27 27 24 25 25 24 22 23 24 23 23 24 25 25 25 25 25 27 29 27 23 26 13 11 3 4 13 15 14 13 12 10
10 11 20 13 11 18 11 25 28 29 27 25 24 22 23 22 23 24 24 25 24 25 26 25 26 26 28 31 30 30 31 25 28 21 8 2 4 4 10 17 16 14 13
8 8 16 27 27 30 29 26 26 26 27 27 27 28 29 22 29 30 28 27 27 26 27 27 28 29 30 31 32 31 32 32 32 26 16 7 8 3 1 8 17 15 14
9 9 11 18 25 29 30 21 24 27 28 29 31 32 31 31 28 28 28 28 27 27 27 27 28 30 30 30 31 32 32 32 34 26 19 11 10 9 4 3 7 15 15
6 8 13 16 22 27 26 20 24 22 27 30 32 33 34 32 29 27 30 30 28 28 29 29 29 29 30 31 31 31 32 31 31 34 26 21 9 8 6 2 3 10 9
6 9 12 14 19 23 24 21 22 27 28 27 32 35 34 31 32 31 31 32 32 33 34 32 32 32 33 31 31 31 30 31 31 32 31 25 22 13 15 9 4 4 5
3 5 7 15 17 23 25 20 18 21 24 32 32 34 34 35 34 35 34 35 36 36 35 33 33 32 32 31 32 32 31 30 29 26 26 24 19 15 17 11 12 2 2
1 4 9 14 17 21 25 23 23 22 26 30 35 36 37 37 39 40 38 38 38 37 38 33 33 32 31 30 30 30 29 28 26 24 22 20 16 14 12 10 14 9 4
8 6 5 9 12 18 19 20 25 25 27 30 34 35 36 37 39 36 40 39 42 40 39 34 36 34 32 31 30 30 27 26 24 22 20 17 16 13 10 8 6 6 6
8 7 9 8 5 7 9 14 17 22 26 27 30 31 32 34 36 34 37 38 41 39 36 36 37 37 35 33 31 29 27 27 25 23 21 17 13 12 6 8 8 8 8
8 7 9 7 6 5 6 9 9 13 18 23 26 30 31 33 35 37 36 36 38 39 38 35 35 36 35 34 33 31 29 29 27 25 21 16 8 6 10 10 10 10 9
10 9 8 10 12 12 10 9 10 12 15 16 19 23 28 31 33 34 34 36 36 35 32 30 32 34 35 32 31 31 30 28 25 21 16 14 11 14 14 13 14 12 9
9 9 10 14 21 20 16 13 13 12 16 17 18 19 23 28 31 33 35 35 35 33 35 35 35 34 34 34 33 31 29 25 23 18 14 13 15 18 15 15 12 10 9
14 11 8 8 18 23 23 21 18 15 15 16 16 18 20 24 26 27 28 30 30 31 32 32 33 36 39 40 34 31 29 25 23 21 20 18 17 18 17 16 13 11 9
17 17 16 21 21 24 24 24 22 18 16 17 18 17 16 19 23 24 26 28 28 30 32 33 36 38 37 41 42 40 30 31 28 23 23 20 19 19 16 11 9 8 8
17 18 17 22 26 27 31 30 28 22 20 20 19 18 17 17 21 22 24 26 29 31 31 33 36 36 36 43 40 39 39 36 27 28 27 24 23 20 16 13 10 7 7
18 18 24 29 32 35 34 36 33 28 23 23 21 20 20 21 18 19 25 26 28 31 32 33 35 34 37 40 37 42 41 30 31 28 26 25 24 20 18 16 13 11 9
25 27 28 29 33 32 32 34 38 36 28 29 27 24 21 22 23 22 24 26 27 27 30 34 35 36 33 38 37 38 33 32 30 28 26 25 23 19 16 13 11 10 9
29 34 38 36 31 31 32 30 29 28 31 35 34 30 24 23 25 24 25 27 27 27 29 29 34 34 36 36 35 36 36 31 29 26 26 24 20 17 15 12 12 12 9
34 35 31 32 35 36 36 33 30 28 34 36 37 33 27 25 25 23 23 24 24 25 26 28 30 33 39 34 33 37 36 32 28 29 26 21 18 15 12 13 11 9 8
40 35 34 34 35 35 33 35 33 34 35 35 34 33 31 27 26 24 23 22 24 24 24 27 28 31 33 34 32 28 31 29 32 31 27 23 17 16 13 11 8 6 7
31 36 38 37 34 32 32 34 36 37 37 34 32 30 30 28 28 25 24 23 25 24 23 25 26 28 34 30 27 25 24 23 29 27 24 21 17 14 11 8 6 10 8
30 33 33 33 38 39 38 36 36 35 37 32 33 29 28 29 29 26 25 24 24 22 22 23 22 25 27 28 28 25 25 22 25 22 19 18 17 13 8 9 10 8 6
30 31 32 33 35 38 38 38 39 35 34 30 29 29 27 25 25 26 26 27 27 30 27 26 28 29 26 26 26 29 28 27 26 25 21 19 16 12 10 10 9 6 6
28 30 32 34 37 37 37 37 37 33 31 27 23 24 22 23 22 20 15 18 24 24 25 27 33 27 28 28 27 24 23 21 22 23 21 19 15 12 12 11 9 7 6
Wind_Direction
178 156 183 200 215 179 181 188 189 193 191 195 194 197 196 196 200 203 204 203 200 200 199 201 195 192 189 185 183 177 175 166 166 150 151 167 186 193 189 189 188 187 187
152 125 113 123 201 186 178 185 188 186 192 194 194 195 195 199 204 206 207 207 208 208 206 203 199 197 193 189 187 185 175 175 174 165 146 153 184 205 203 202 195 194 197
156 128 117 136 174 220 216 197 197 196 197 197 194 194 194 202 207 208 208 208 210 211 209 207 204 201 198 197 195 194 191 178 184 182 164 142 209 146 205 205 202 203 204
157 156 149 165 192 205 211 208 207 206 206 201 198 198 199 199 210 211 210 210 212 213 212 211 208 206 204 203 201 200 200 196 187 189 202 181 147 156 190 213 210 212 214
171 164 168 176 194 210 212 200 218 214 210 211 210 211 215 219 220 217 216 216 216 215 215 215 214 213 210 208 207 203 204 203 199 191 193 191 179 165 143 180 191 211 217
182 182 190 189 210 217 212 216 206 221 222 218 220 221 223 224 220 217 217 218 219 217 217 219 220 219 217 215 213 213 210 208 210 207 206 201 181 189 159 132 162 181 188
169 186 199 199 207 214 219 229 222 217 216 231 228 228 230 232 232 228 222 220 219 219 219 219 220 219 220 219 217 214 213 213 215 215 217 217 215 211 193 159 146 151 156
317 258 221 219 225 227 234 235 233 225 226 221 233 237 237 238 239 237 233 231 226 228 228 223 224 224 222 221 219 218 218 216 218 218 216 216 211 209 202 179 155 97 123
346 243 253 245 237 235 236 238 242 241 232 235 236 235 236 238 240 243 240 241 236 236 235 230 229 228 224 223 220 218 217 216 215 209 205 197 188 187 191 193 186 156 167
325 313 269 276 267 253 247 239 242 238 242 239 238 237 237 238 241 236 240 243 246 238 237 232 228 226 226 225 220 217 213 205 195 191 181 177 170 164 160 167 186 193 167
310 315 311 296 285 280 272 269 265 262 263 260 258 254 250 246 244 236 239 241 243 245 242 236 230 224 222 219 215 214 205 198 185 178 171 159 154 143 149 197 190 184 172
311 326 343 344 323 311 296 294 281 267 268 271 271 265 258 247 239 240 245 242 242 243 242 237 232 227 221 215 210 204 199 190 174 165 159 154 171 172 193 194 184 189 180
333 338 2 2 354 343 317 293 291 292 287 282 272 265 263 257 250 250 245 238 241 238 235 234 228 222 218 212 207 200 187 178 170 169 169 167 180 203 200 194 185 178 180
352 355 360 356 358 355 345 327 312 304 300 296 286 273 264 260 259 259 250 246 243 239 235 228 221 216 213 205 199 194 181 177 176 176 183 184 194 211 201 202 186 178 174
12 2 351 343 353 355 349 341 327 313 305 296 290 285 283 273 264 253 248 248 244 236 227 215 212 203 198 199 190 184 182 181 182 185 184 186 205 219 211 203 184 189 180
357 353 351 350 346 344 344 340 329 312 308 305 300 296 283 278 274 264 255 246 240 225 216 207 206 202 196 198 188 182 190 193 186 184 188 200 202 205 200 198 191 193 192
346 343 340 339 337 333 337 337 332 318 302 298 300 297 289 275 269 264 252 241 231 224 214 206 200 198 193 193 191 201 197 184 195 189 193 193 198 195 185 187 179 188 194
339 335 334 334 330 326 327 335 331 321 302 290 287 289 288 278 265 256 249 236 224 214 203 198 198 192 192 190 178 188 184 189 187 192 198 197 193 191 190 188 196 200 208
327 323 322 319 318 318 324 326 324 320 308 292 286 283 279 272 266 250 239 233 220 205 200 198 191 189 182 174 169 176 178 179 187 194 201 199 193 190 188 186 195 206 217
324 323 321 317 315 314 317 313 307 306 302 299 298 289 274 263 257 249 238 227 215 204 196 189 192 185 171 170 165 179 174 179 190 196 197 195 190 183 178 191 202 212 223
324 323 317 313 314 315 314 308 304 296 298 304 299 289 273 256 253 247 234 224 207 198 187 181 179 173 169 168 165 176 176 184 179 184 183 183 183 174 178 192 195 220 242
327 326 319 315 313 311 309 302 299 300 297 297 293 284 272 252 240 233 224 211 198 185 177 169 167 169 168 169 171 175 183 182 186 183 181 174 166 165 168 182 194 220 193
322 323 322 318 316 313 306 300 298 299 296 293 286 274 263 245 231 221 210 196 193 184 179 175 168 165 164 165 172 177 179 182 190 183 175 168 163 162 169 190 192 187 214
323 326 324 321 319 319 312 301 299 298 291 289 283 263 246 230 222 217 209 196 192 189 184 178 173 164 163 167 169 171 171 165 173 164 160 160 163 176 189 167 175 207 234
332 331 327 325 320 320 316 315 307 298 292 289 275 245 228 213 208 208 204 201 203 196 185 181 167 161 161 166 160 161 161 166 163 157 155 161 169 174 179 186 199 213 233
331 331 328 325 326 323 323 317 319 311 289 280 271 242 216 204 201 191 178 200 200 192 184 173 166 157 153 154 159 164 164 157 155 164 167 175 183 190 194 196 201 217 229